QPF
0.11 0.12 0.12 0.11 0.12 0.13 0.11 0.09 0.07 0.06 0.06 0.05 0.04 0.03 0.03 0.03 0.03 0.03 0.02 0.02 0.02 0.03 0.03 0.03 0.02 0.02 0.01 0.02 0.03 0.03 0.04 0.06 0.05 0.04 0.04 0.04 0.05 0.05 0.05 0.07 0.08 0.09 0.09
0.06 0.06 0.06 0.06 0.07 0.08 0.07 0.08 0.07 0.08 0.09 0.08 0.07 0.07 0.07 0.06 0.05 0.04 0.03 0.03 0.04 0.02 0.02 0.02 0.02 0.03 0.02 0.02 0.02 0.02 0.02 0.04 0.04 0.04 0.04 0.04 0.05 0.04 0.06 0.07 0.06 0.05 0.05
0.09 0.08 0.08 0.10 0.12 0.10 0.07 0.08 0.10 0.10 0.12 0.13 0.12 0.11 0.11 0.10 0.09 0.07 0.07 0.06 0.05 0.03 0.02 0.02 0.03 0.04 0.02 0.01 0.01 0.01 0.02 0.03 0.03 0.03 0.02 0.03 0.03 0.04 0.06 0.07 0.06 0.04 0.04
0.10 0.12 0.10 0.11 0.11 0.11 0.10 0.11 0.12 0.14 0.18 0.19 0.16 0.14 0.15 0.14 0.11 0.10 0.09 0.07 0.05 0.03 0.03 0.03 0.02 0.03 0.02 0.02 0.01 0.01 0.01 0.03 0.03 0.03 0.02 0.02 0.02 0.03 0.05 0.06 0.06 0.05 0.04
0.08 0.10 0.17 0.15 0.10 0.09 0.10 0.11 0.11 0.12 0.12 0.11 0.10 0.08 0.09 0.11 0.11 0.10 0.09 0.08 0.05 0.02 0.02 0.02 0.02 0.03 0.03 0.03 0.01 0.01 0.01 0.02 0.03 0.02 0.02 0.02 0.02 0.03 0.03 0.04 0.05 0.05 0.03
0.07 0.07 0.08 0.10 0.11 0.11 0.10 0.10 0.11 0.10 0.07 0.06 0.07 0.06 0.06 0.06 0.09 0.10 0.09 0.07 0.05 0.03 0.03 0.03 0.04 0.05 0.04 0.03 0.02 0.01 0.01 0.02 0.03 0.02 0.02 0.02 0.02 0.02 0.02 0.03 0.04 0.07 0.05
0.07 0.07 0.06 0.09 0.12 0.11 0.07 0.05 0.04 0.05 0.05 0.05 0.06 0.07 0.05 0.05 0.06 0.06 0.05 0.05 0.05 0.04 0.03 0.04 0.05 0.04 0.04 0.02 0.01 0.01 0.02 0.03 0.04 0.03 0.02 0.01 0.01 0.01 0.01 0.02 0.03 0.04 0.06
0.09 0.07 0.06 0.06 0.07 0.12 0.09 0.06 0.06 0.08 0.08 0.08 0.09 0.07 0.05 0.04 0.03 0.04 0.04 0.04 0.03 0.03 0.04 0.06 0.06 0.05 0.03 0.02 0.02 0.02 0.03 0.03 0.03 0.03 0.03 0.01 0.01 0.01 0.01 0.02 0.03 0.04 0.05
0.04 0.05 0.05 0.05 0.04 0.05 0.05 0.05 0.06 0.06 0.06 0.05 0.05 0.06 0.05 0.03 0.03 0.03 0.03 0.04 0.04 0.03 0.04 0.05 0.05 0.05 0.04 0.03 0.03 0.03 0.03 0.04 0.03 0.03 0.02 0.02 0.02 0.01 0.01 0.01 0.03 0.04 0.04
0.02 0.02 0.04 0.04 0.04 0.05 0.05 0.05 0.06 0.06 0.07 0.06 0.04 0.03 0.02 0.01 0.02 0.02 0.02 0.02 0.03 0.04 0.05 0.05 0.05 0.05 0.05 0.05 0.04 0.03 0.02 0.02 0.02 0.02 0.01 0.02 0.02 0.01 0.00 0.00 0.01 0.03 0.03
0.01 0.02 0.03 0.06 0.07 0.09 0.09 0.10 0.10 0.12 0.13 0.08 0.05 0.04 0.03 0.02 0.02 0.02 0.02 0.01 0.02 0.03 0.05 0.05 0.05 0.05 0.04 0.03 0.02 0.01 0.01 0.01 0.01 0.01 0.01 0.02 0.02 0.01 0.00 0.00 0.00 0.01 0.03
0.02 0.03 0.04 0.06 0.07 0.08 0.10 0.17 0.18 0.16 0.12 0.09 0.07 0.04 0.03 0.03 0.04 0.03 0.02 0.01 0.01 0.02 0.03 0.04 0.04 0.05 0.03 0.03 0.02 0.01 0.01 0.01 0.01 0.01 0.01 0.01 0.02 0.01 0.01 0.00 0.01 0.02 0.04
0.02 0.03 0.05 0.06 0.06 0.10 0.14 0.18 0.18 0.15 0.09 0.06 0.05 0.04 0.03 0.03 0.04 0.03 0.02 0.02 0.03 0.03 0.02 0.03 0.04 0.04 0.04 0.03 0.03 0.02 0.01 0.01 0.01 0.01 0.01 0.01 0.01 0.01 0.01 0.01 0.02 0.03 0.03
0.05 0.06 0.07 0.07 0.05 0.07 0.10 0.13 0.14 0.10 0.06 0.04 0.03 0.03 0.03 0.02 0.02 0.02 0.02 0.03 0.03 0.02 0.01 0.01 0.02 0.03 0.05 0.04 0.03 0.02 0.01 0.01 0.01 0.01 0.01 0.01 0.01 0.01 0.01 0.02 0.02 0.02 0.02
0.04 0.06 0.07 0.06 0.05 0.06 0.07 0.10 0.11 0.10 0.08 0.06 0.05 0.05 0.04 0.02 0.02 0.01 0.02 0.01 0.01 0.02 0.02 0.01 0.01 0.01 0.03 0.04 0.03 0.03 0.02 0.02 0.01 0.01 0.02 0.02 0.02 0.01 0.02 0.03 0.03 0.05 0.05
0.03 0.03 0.04 0.04 0.04 0.04 0.05 0.05 0.07 0.09 0.09 0.07 0.07 0.07 0.04 0.03 0.02 0.01 0.01 0.02 0.02 0.02 0.02 0.02 0.02 0.02 0.02 0.02 0.03 0.04 0.03 0.03 0.02 0.02 0.02 0.02 0.02 0.01 0.02 0.03 0.05 0.09 0.09
0.02 0.03 0.03 0.02 0.01 0.02 0.03 0.04 0.05 0.07 0.08 0.07 0.07 0.05 0.03 0.02 0.02 0.02 0.02 0.02 0.02 0.03 0.02 0.01 0.01 0.02 0.02 0.02 0.02 0.03 0.03 0.04 0.04 0.03 0.02 0.02 0.02 0.02 0.03 0.04 0.05 0.08 0.07
0.02 0.02 0.02 0.01 0.01 0.01 0.02 0.03 0.05 0.05 0.05 0.04 0.04 0.04 0.03 0.03 0.04 0.04 0.04 0.04 0.04 0.04 0.02 0.02 0.02 0.02 0.02 0.02 0.02 0.03 0.03 0.04 0.05 0.04 0.02 0.02 0.02 0.03 0.03 0.04 0.06 0.07 0.08
0.02 0.01 0.01 0.02 0.02 0.02 0.02 0.03 0.04 0.05 0.04 0.03 0.03 0.03 0.04 0.04 0.04 0.05 0.04 0.04 0.04 0.04 0.04 0.04 0.03 0.03 0.02 0.02 0.02 0.03 0.03 0.03 0.04 0.05 0.04 0.03 0.03 0.04 0.05 0.05 0.05 0.06 0.07
0.03 0.03 0.03 0.03 0.03 0.03 0.03 0.03 0.04 0.03 0.03 0.03 0.03 0.03 0.03 0.05 0.04 0.04 0.03 0.03 0.03 0.03 0.03 0.04 0.04 0.04 0.03 0.03 0.03 0.02 0.03 0.04 0.05 0.04 0.04 0.04 0.04 0.05 0.05 0.05 0.05 0.05 0.05
0.05 0.05 0.04 0.03 0.02 0.02 0.02 0.03 0.04 0.04 0.04 0.04 0.04 0.05 0.06 0.04 0.03 0.04 0.04 0.04 0.03 0.03 0.04 0.04 0.06 0.07 0.05 0.04 0.04 0.04 0.03 0.04 0.05 0.04 0.03 0.03 0.04 0.04 0.04 0.05 0.05 0.05 0.05
0.06 0.05 0.04 0.03 0.03 0.03 0.03 0.04 0.05 0.04 0.05 0.06 0.07 0.07 0.07 0.05 0.04 0.05 0.05 0.05 0.05 0.04 0.03 0.03 0.04 0.05 0.05 0.04 0.04 0.04 0.04 0.03 0.03 0.04 0.04 0.04 0.04 0.04 0.05 0.06 0.07 0.07 0.07
0.05 0.04 0.05 0.05 0.06 0.07 0.08 0.07 0.07 0.07 0.06 0.07 0.09 0.09 0.09 0.07 0.08 0.08 0.07 0.07 0.08 0.07 0.05 0.04 0.04 0.05 0.05 0.04 0.03 0.03 0.02 0.01 0.02 0.02 0.03 0.05 0.05 0.05 0.05 0.05 0.05 0.06 0.06
0.06 0.06 0.07 0.08 0.09 0.10 0.08 0.08 0.08 0.08 0.09 0.08 0.09 0.10 0.11 0.11 0.10 0.09 0.08 0.07 0.07 0.09 0.08 0.07 0.06 0.06 0.05 0.03 0.02 0.01 0.01 0.01 0.02 0.02 0.02 0.02 0.03 0.03 0.03 0.03 0.04 0.05 0.05
0.05 0.05 0.06 0.08 0.09 0.09 0.09 0.10 0.11 0.12 0.14 0.12 0.10 0.09 0.10 0.12 0.12 0.12 0.10 0.06 0.05 0.05 0.07 0.08 0.08 0.07 0.05 0.04 0.03 0.02 0.02 0.02 0.02 0.02 0.02 0.02 0.02 0.02 0.02 0.03 0.04 0.04 0.05
0.02 0.03 0.04 0.05 0.06 0.06 0.07 0.07 0.09 0.09 0.10 0.08 0.06 0.05 0.06 0.07 0.08 0.08 0.07 0.07 0.07 0.07 0.07 0.07 0.07 0.05 0.04 0.04 0.05 0.06 0.05 0.03 0.03 0.03 0.02 0.02 0.02 0.02 0.02 0.02 0.03 0.03 0.04
MSLP
1015.93 1016.17 1016.44 1016.71 1016.93 1017.09 1017.18 1017.20 1017.19 1017.16 1017.13 1017.12 1017.11 1017.12 1017.11 1017.09 1017.05 1016.99 1016.91 1016.84 1016.77 1016.73 1016.71 1016.71 1016.72 1016.72 1016.69 1016.64 1016.55 1016.44 1016.30 1016.14 1015.97 1015.80 1015.61 1015.41 1015.19 1014.95 1014.69 1014.44 1014.22 1014.03 1013.91
1015.72 1015.96 1016.23 1016.49 1016.71 1016.87 1016.96 1017.01 1017.02 1017.01 1017.01 1017.01 1017.03 1017.05 1017.07 1017.07 1017.05 1017.00 1016.95 1016.88 1016.82 1016.77 1016.73 1016.70 1016.68 1016.66 1016.62 1016.57 1016.51 1016.42 1016.33 1016.23 1016.12 1016.00 1015.86 1015.69 1015.48 1015.24 1014.98 1014.71 1014.46 1014.24 1014.08
1015.45 1015.71 1015.98 1016.25 1016.47 1016.63 1016.74 1016.80 1016.83 1016.85 1016.86 1016.89 1016.93 1016.96 1017.00 1017.01 1017.00 1016.97 1016.92 1016.86 1016.80 1016.74 1016.69 1016.65 1016.61 1016.58 1016.54 1016.49 1016.44 1016.39 1016.33 1016.28 1016.22 1016.15 1016.05 1015.92 1015.74 1015.52 1015.27 1015.00 1014.72 1014.48 1014.28
1015.14 1015.44 1015.74 1016.02 1016.25 1016.43 1016.55 1016.62 1016.67 1016.71 1016.74 1016.78 1016.83 1016.87 1016.90 1016.92 1016.91 1016.88 1016.82 1016.76 1016.69 1016.63 1016.57 1016.52 1016.48 1016.44 1016.40 1016.36 1016.32 1016.28 1016.25 1016.23 1016.21 1016.18 1016.12 1016.03 1015.90 1015.71 1015.49 1015.23 1014.96 1014.70 1014.48
1014.83 1015.18 1015.53 1015.83 1016.08 1016.27 1016.40 1016.49 1016.55 1016.59 1016.64 1016.68 1016.73 1016.76 1016.78 1016.78 1016.75 1016.70 1016.64 1016.56 1016.48 1016.41 1016.35 1016.30 1016.25 1016.21 1016.16 1016.12 1016.09 1016.06 1016.04 1016.03 1016.03 1016.03 1016.01 1015.96 1015.88 1015.74 1015.56 1015.34 1015.09 1014.83 1014.59
1014.52 1014.94 1015.33 1015.67 1015.93 1016.13 1016.27 1016.37 1016.43 1016.48 1016.52 1016.56 1016.59 1016.60 1016.60 1016.56 1016.51 1016.43 1016.33 1016.24 1016.15 1016.07 1016.00 1015.95 1015.90 1015.86 1015.81 1015.76 1015.72 1015.68 1015.66 1015.65 1015.65 1015.66 1015.66 1015.66 1015.62 1015.54 1015.41 1015.24 1015.03 1014.80 1014.56
1014.22 1014.71 1015.14 1015.50 1015.77 1015.97 1016.11 1016.21 1016.27 1016.31 1016.34 1016.36 1016.37 1016.35 1016.31 1016.24 1016.14 1016.03 1015.90 1015.79 1015.68 1015.60 1015.53 1015.48 1015.43 1015.39 1015.34 1015.28 1015.22 1015.16 1015.11 1015.07 1015.06 1015.07 1015.08 1015.10 1015.10 1015.08 1015.02 1014.91 1014.76 1014.57 1014.35
1013.93 1014.45 1014.91 1015.27 1015.55 1015.74 1015.86 1015.94 1015.99 1016.02 1016.04 1016.04 1016.01 1015.97 1015.89 1015.78 1015.65 1015.50 1015.36 1015.23 1015.11 1015.03 1014.97 1014.92 1014.88 1014.83 1014.77 1014.70 1014.61 1014.52 1014.43 1014.36 1014.31 1014.30 1014.31 1014.34 1014.37 1014.40 1014.39 1014.35 1014.26 1014.12 1013.95
1013.61 1014.15 1014.60 1014.94 1015.20 1015.36 1015.47 1015.53 1015.56 1015.57 1015.57 1015.55 1015.51 1015.44 1015.33 1015.20 1015.05 1014.89 1014.73 1014.60 1014.49 1014.41 1014.36 1014.33 1014.30 1014.25 1014.19 1014.09 1013.97 1013.84 1013.71 1013.59 1013.51 1013.46 1013.45 1013.47 1013.52 1013.57 1013.61 1013.62 1013.59 1013.52 1013.39
1013.24 1013.75 1014.17 1014.48 1014.69 1014.82 1014.90 1014.94 1014.95 1014.96 1014.95 1014.92 1014.87 1014.79 1014.68 1014.55 1014.39 1014.23 1014.08 1013.96 1013.87 1013.82 1013.79 1013.77 1013.75 1013.71 1013.64 1013.53 1013.39 1013.22 1013.04 1012.88 1012.74 1012.65 1012.61 1012.62 1012.66 1012.72 1012.78 1012.83 1012.84 1012.82 1012.74
1012.77 1013.24 1013.60 1013.86 1014.02 1014.12 1014.18 1014.20 1014.21 1014.21 1014.21 1014.20 1014.16 1014.09 1013.99 1013.87 1013.74 1013.60 1013.48 1013.38 1013.33 1013.30 1013.30 1013.30 1013.30 1013.27 1013.20 1013.07 1012.91 1012.71 1012.49 1012.29 1012.11 1011.97 1011.89 1011.86 1011.88 1011.94 1012.00 1012.06 1012.10 1012.11 1012.08
1012.19 1012.59 1012.89 1013.10 1013.23 1013.31 1013.35 1013.37 1013.40 1013.42 1013.44 1013.45 1013.44 1013.40 1013.34 1013.25 1013.15 1013.05 1012.97 1012.91 1012.89 1012.90 1012.92 1012.95 1012.96 1012.94 1012.87 1012.74 1012.56 1012.34 1012.10 1011.86 1011.64 1011.47 1011.35 1011.29 1011.27 1011.30 1011.34 1011.39 1011.43 1011.45 1011.44
1011.50 1011.84 1012.09 1012.27 1012.38 1012.45 1012.50 1012.54 1012.59 1012.65 1012.70 1012.75 1012.78 1012.79 1012.77 1012.72 1012.67 1012.61 1012.57 1012.56 1012.57 1012.61 1012.66 1012.70 1012.72 1012.71 1012.63 1012.50 1012.32 1012.09 1011.83 1011.58 1011.34 1011.14 1010.99 1010.89 1010.84 1010.83 1010.84 1010.86 1010.88 1010.88 1010.87
1010.74 1011.04 1011.27 1011.43 1011.54 1011.63 1011.71 1011.79 1011.88 1011.98 1012.08 1012.17 1012.24 1012.29 1012.31 1012.31 1012.29 1012.28 1012.28 1012.29 1012.33 1012.38 1012.44 1012.50 1012.52 1012.50 1012.43 1012.30 1012.12 1011.89 1011.64 1011.39 1011.15 1010.94 1010.77 1010.65 1010.57 1010.52 1010.49 1010.46 1010.44 1010.41 1010.38
1010.00 1010.28 1010.51 1010.68 1010.82 1010.95 1011.07 1011.20 1011.33 1011.47 1011.61 1011.73 1011.83 1011.90 1011.95 1011.97 1011.99 1011.99 1012.01 1012.05 1012.09 1012.15 1012.21 1012.26 1012.28 1012.26 1012.19 1012.06 1011.89 1011.68 1011.45 1011.22 1011.00 1010.80 1010.63 1010.50 1010.40 1010.31 1010.24 1010.17 1010.10 1010.03 1009.95
1009.39 1009.67 1009.91 1010.11 1010.29 1010.46 1010.63 1010.80 1010.97 1011.14 1011.29 1011.42 1011.53 1011.60 1011.64 1011.67 1011.68 1011.69 1011.71 1011.74 1011.78 1011.83 1011.88 1011.91 1011.92 1011.89 1011.82 1011.71 1011.56 1011.38 1011.18 1010.99 1010.80 1010.64 1010.49 1010.37 1010.26 1010.16 1010.05 1009.95 1009.83 1009.71 1009.59
1008.99 1009.28 1009.55 1009.78 1010.01 1010.22 1010.42 1010.62 1010.80 1010.96 1011.10 1011.21 1011.28 1011.32 1011.34 1011.33 1011.32 1011.31 1011.30 1011.31 1011.33 1011.36 1011.39 1011.41 1011.41 1011.38 1011.31 1011.21 1011.09 1010.95 1010.81 1010.67 1010.53 1010.41 1010.31 1010.21 1010.11 1010.01 1009.89 1009.75 1009.59 1009.43 1009.26
1008.87 1009.18 1009.46 1009.72 1009.97 1010.21 1010.42 1010.61 1010.78 1010.90 1010.99 1011.04 1011.05 1011.03 1010.98 1010.92 1010.85 1010.80 1010.76 1010.74 1010.74 1010.75 1010.76 1010.76 1010.75 1010.72 1010.67 1010.60 1010.52 1010.43 1010.34 1010.26 1010.19 1010.13 1010.07 1010.01 1009.94 1009.84 1009.72 1009.57 1009.39 1009.19 1008.98
1009.04 1009.35 1009.63 1009.91 1010.16 1010.39 1010.59 1010.75 1010.86 1010.92 1010.93 1010.89 1010.81 1010.69 1010.56 1010.43 1010.30 1010.19 1010.11 1010.06 1010.03 1010.02 1010.02 1010.02 1010.02 1010.00 1009.98 1009.94 1009.91 1009.87 1009.84 1009.83 1009.82 1009.82 1009.81 1009.79 1009.75 1009.67 1009.55 1009.39 1009.20 1008.98 1008.74
1009.46 1009.74 1010.02 1010.27 1010.51 1010.71 1010.86 1010.96 1011.00 1010.97 1010.89 1010.74 1010.55 1010.34 1010.12 1009.90 1009.71 1009.55 1009.43 1009.35 1009.31 1009.29 1009.29 1009.30 1009.31 1009.32 1009.32 1009.33 1009.34 1009.36 1009.39 1009.43 1009.48 1009.53 1009.57 1009.59 1009.57 1009.50 1009.39 1009.23 1009.03 1008.79 1008.54
1010.03 1010.28 1010.52 1010.74 1010.94 1011.09 1011.18 1011.21 1011.16 1011.04 1010.85 1010.60 1010.32 1010.01 1009.71 1009.43 1009.18 1008.98 1008.84 1008.74 1008.69 1008.67 1008.68 1008.71 1008.74 1008.78 1008.82 1008.86 1008.92 1008.98 1009.05 1009.14 1009.23 1009.31 1009.38 1009.41 1009.41 1009.35 1009.24 1009.08 1008.87 1008.62 1008.35
1010.64 1010.84 1011.03 1011.21 1011.35 1011.45 1011.48 1011.43 1011.31 1011.10 1010.83 1010.51 1010.15 1009.77 1009.42 1009.09 1008.82 1008.60 1008.44 1008.34 1008.30 1008.29 1008.32 1008.36 1008.42 1008.48 1008.55 1008.62 1008.70 1008.79 1008.89 1008.99 1009.09 1009.19 1009.25 1009.29 1009.27 1009.21 1009.08 1008.91 1008.68 1008.42 1008.14
1011.19 1011.32 1011.47 1011.59 1011.68 1011.73 1011.70 1011.60 1011.42 1011.17 1010.85 1010.48 1010.09 1009.69 1009.32 1008.98 1008.71 1008.49 1008.34 1008.26 1008.23 1008.24 1008.27 1008.33 1008.40 1008.47 1008.55 1008.63 1008.72 1008.81 1008.90 1008.99 1009.08 1009.15 1009.19 1009.19 1009.14 1009.04 1008.89 1008.68 1008.43 1008.15 1007.85
1011.58 1011.67 1011.76 1011.84 1011.90 1011.90 1011.84 1011.71 1011.51 1011.24 1010.91 1010.54 1010.16 1009.79 1009.44 1009.13 1008.89 1008.70 1008.58 1008.52 1008.50 1008.52 1008.56 1008.61 1008.67 1008.74 1008.80 1008.86 1008.92 1008.98 1009.04 1009.09 1009.12 1009.14 1009.12 1009.07 1008.96 1008.81 1008.61 1008.36 1008.07 1007.76 1007.44
1011.82 1011.87 1011.92 1011.96 1011.98 1011.95 1011.88 1011.74 1011.55 1011.30 1011.01 1010.69 1010.36 1010.05 1009.76 1009.52 1009.33 1009.19 1009.11 1009.07 1009.06 1009.08 1009.11 1009.14 1009.17 1009.20 1009.21 1009.23 1009.23 1009.23 1009.22 1009.20 1009.16 1009.10 1009.00 1008.87 1008.69 1008.47 1008.20 1007.90 1007.57 1007.23 1006.88
1011.94 1011.94 1011.95 1011.96 1011.95 1011.91 1011.83 1011.71 1011.55 1011.35 1011.12 1010.88 1010.64 1010.42 1010.22 1010.07 1009.95 1009.87 1009.83 1009.81 1009.80 1009.80 1009.80 1009.79 1009.77 1009.73 1009.68 1009.62 1009.54 1009.46 1009.36 1009.25 1009.12 1008.96 1008.77 1008.54 1008.28 1007.98 1007.64 1007.28 1006.91 1006.53 1006.17
Thickness
5753 5750 5748 5746 5743 5740 5739 5738 5736 5734 5732 5730 5729 5727 5725 5723 5722 5720 5719 5718 5716 5714 5714 5713 5712 5712 5711 5710 5709 5708 5706 5704 5700 5700 5702 5703 5703 5702 5703 5703 5703 5702 5702
5751 5747 5744 5741 5738 5736 5735 5734 5732 5729 5728 5726 5724 5722 5720 5718 5716 5715 5713 5712 5710 5708 5708 5707 5707 5707 5705 5704 5703 5701 5700 5699 5696 5693 5693 5694 5695 5695 5696 5696 5696 5696 5696
5748 5743 5740 5736 5733 5731 5730 5729 5727 5725 5723 5722 5719 5717 5715 5713 5711 5709 5708 5706 5704 5703 5703 5702 5702 5701 5699 5698 5697 5695 5694 5694 5691 5689 5687 5688 5688 5688 5688 5688 5689 5689 5690
5743 5738 5735 5733 5730 5728 5726 5725 5723 5721 5719 5716 5715 5713 5711 5708 5707 5705 5703 5701 5699 5698 5698 5697 5697 5697 5695 5693 5692 5690 5688 5686 5685 5683 5681 5680 5680 5681 5681 5679 5679 5681 5682
5738 5734 5732 5730 5727 5724 5722 5720 5719 5716 5714 5712 5710 5708 5706 5705 5703 5701 5699 5697 5694 5693 5692 5693 5693 5694 5693 5691 5689 5685 5683 5680 5678 5676 5674 5673 5673 5672 5672 5673 5672 5672 5673
5733 5730 5727 5724 5722 5719 5717 5715 5713 5710 5708 5706 5704 5702 5701 5701 5700 5698 5695 5692 5690 5688 5687 5687 5688 5688 5687 5686 5685 5683 5681 5677 5674 5671 5669 5668 5668 5668 5668 5668 5665 5664 5664
5728 5725 5722 5719 5717 5715 5714 5710 5707 5704 5703 5700 5699 5698 5696 5697 5696 5694 5692 5689 5687 5685 5683 5682 5683 5683 5681 5679 5678 5678 5676 5675 5674 5671 5667 5665 5664 5665 5663 5661 5660 5660 5660
5722 5720 5717 5715 5712 5710 5708 5705 5702 5700 5697 5695 5694 5693 5692 5692 5691 5689 5687 5685 5683 5681 5680 5679 5677 5677 5676 5674 5672 5670 5669 5669 5669 5667 5666 5665 5664 5663 5661 5659 5657 5656 5656
5717 5715 5713 5710 5707 5704 5702 5700 5699 5696 5693 5691 5690 5688 5687 5687 5687 5685 5682 5679 5677 5677 5677 5676 5674 5672 5672 5670 5667 5664 5662 5663 5664 5663 5662 5661 5661 5660 5658 5654 5651 5648 5646
5712 5711 5709 5706 5703 5701 5699 5697 5695 5692 5689 5687 5685 5684 5683 5682 5682 5680 5678 5675 5672 5672 5671 5671 5670 5669 5667 5665 5662 5660 5657 5657 5657 5656 5655 5655 5655 5654 5653 5651 5648 5643 5641
5709 5707 5705 5702 5700 5698 5695 5693 5690 5687 5684 5681 5679 5678 5678 5678 5677 5675 5673 5671 5668 5666 5665 5664 5665 5664 5662 5660 5659 5657 5656 5654 5652 5650 5649 5648 5648 5648 5647 5647 5645 5642 5639
5703 5701 5699 5697 5696 5694 5690 5687 5685 5681 5678 5675 5671 5670 5671 5671 5671 5670 5669 5667 5665 5662 5661 5660 5659 5659 5657 5656 5654 5653 5652 5649 5646 5644 5643 5642 5642 5641 5642 5642 5641 5640 5640
5696 5693 5692 5691 5689 5686 5683 5680 5677 5674 5672 5669 5666 5664 5664 5665 5665 5665 5663 5662 5660 5658 5657 5656 5655 5653 5651 5650 5649 5648 5646 5643 5640 5638 5638 5638 5639 5638 5637 5635 5635 5635 5635
5688 5686 5685 5682 5680 5679 5676 5674 5671 5669 5666 5664 5661 5660 5659 5658 5658 5658 5657 5655 5654 5652 5650 5649 5648 5646 5644 5644 5643 5642 5640 5639 5637 5635 5634 5634 5633 5632 5631 5630 5628 5628 5626
5681 5680 5678 5676 5673 5671 5669 5667 5666 5665 5664 5660 5658 5656 5654 5653 5655 5654 5651 5649 5647 5645 5643 5641 5639 5637 5636 5636 5636 5635 5635 5634 5632 5631 5629 5627 5626 5625 5624 5624 5623 5622 5620
5674 5672 5671 5669 5666 5664 5662 5661 5661 5660 5659 5657 5656 5653 5652 5652 5651 5648 5646 5644 5642 5639 5636 5634 5632 5631 5630 5630 5630 5630 5629 5629 5628 5626 5625 5623 5621 5620 5619 5618 5618 5616 5614
5668 5667 5665 5663 5661 5658 5655 5654 5652 5653 5653 5652 5651 5650 5648 5647 5645 5643 5640 5638 5636 5632 5629 5628 5627 5626 5625 5625 5625 5625 5625 5625 5624 5622 5621 5619 5617 5616 5614 5613 5612 5610 5609
5663 5663 5661 5658 5656 5653 5651 5649 5647 5646 5645 5645 5645 5645 5643 5641 5640 5637 5634 5631 5627 5625 5624 5624 5623 5622 5621 5621 5621 5621 5620 5620 5619 5618 5616 5614 5613 5611 5609 5607 5605 5604 5604
5658 5657 5656 5654 5652 5650 5648 5645 5643 5642 5640 5639 5638 5638 5637 5635 5633 5631 5628 5625 5624 5622 5621 5620 5620 5619 5618 5618 5617 5617 5616 5615 5615 5613 5611 5609 5608 5606 5605 5603 5602 5601 5600
5653 5653 5651 5649 5647 5645 5644 5641 5639 5637 5636 5634 5633 5632 5630 5627 5626 5624 5622 5621 5619 5618 5617 5616 5615 5615 5614 5614 5613 5612 5611 5610 5610 5608 5607 5605 5604 5603 5601 5599 5598 5597 5596
5648 5646 5646 5644 5642 5641 5638 5636 5635 5633 5631 5630 5629 5629 5627 5624 5622 5620 5619 5617 5617 5616 5614 5613 5611 5609 5609 5608 5608 5608 5607 5606 5605 5605 5603 5602 5600 5599 5597 5595 5594 5593 5592
5642 5640 5638 5637 5636 5635 5633 5632 5630 5628 5627 5626 5625 5624 5622 5620 5618 5616 5615 5614 5614 5614 5612 5609 5607 5606 5605 5604 5603 5603 5602 5601 5601 5599 5598 5597 5596 5594 5593 5591 5590 5589 5588
5636 5635 5634 5633 5632 5630 5629 5627 5626 5624 5622 5622 5621 5619 5617 5615 5613 5612 5610 5609 5609 5609 5607 5606 5603 5601 5600 5600 5600 5599 5598 5597 5596 5595 5594 5592 5591 5590 5588 5587 5586 5585 5584
5631 5630 5629 5628 5626 5625 5623 5622 5621 5620 5619 5618 5616 5615 5613 5611 5609 5607 5606 5605 5604 5603 5603 5601 5599 5597 5595 5595 5594 5594 5593 5592 5592 5591 5590 5588 5587 5586 5584 5583 5582 5582 5580
5627 5625 5624 5622 5621 5620 5618 5617 5615 5614 5613 5612 5612 5610 5608 5606 5603 5602 5601 5600 5599 5598 5597 5596 5594 5592 5591 5590 5589 5588 5587 5587 5586 5586 5585 5584 5582 5581 5580 5579 5578 5577 5576
5621 5620 5618 5617 5616 5615 5614 5613 5611 5610 5609 5608 5607 5604 5602 5600 5599 5597 5596 5595 5594 5592 5591 5589 5588 5587 5586 5585 5585 5584 5582 5582 5581 5580 5580 5579 5578 5577 5575 5574 5574 5573 5572